Powrót do katalogu

SHIYAN 6 03

SY-6 03

AktywnyNaukaSSO
NORAD 48157·PAYLOAD·🇨🇳 China

Wystrzelony Apr 8, 2021 z Taiyuan Satellite Launch Center

Loading…

Następne Przeloty (najbliższe 24 godziny)

TLE

ŚwieżeSource: Space-Track

Epoka: Sep 15, 2026, 00:03 UTC

1 48157U 21028A   26258.00217765 -.00000057  00000-0 -11277-4 0  9995
2 48157  99.5285 272.1541 0045799 211.1670 148.6762 13.77605228271879

Śledź SHIYAN 6 03 w czasie rzeczywistym z AllMySat

Download on the App Store